Location: Banksville Park
(38.5557°N, 75.1182°W)
Time: 05:07:41
(UTC+00:00)

Cosmos 2369 - Pass Details

Date: 19 September 2020
Orbit: 839 x 856 km, 71.0° (Epoch: 20 October)

Event Time Altitude Azimuth Distance (km) Brightness Sun altitude
Exits shadow 08:42:27 35° 310° (NW) 1,348 4.5 -24.3°
Drops below altitude 10° 08:47:15 10° 6° (N) 2,495 6.5 -23.4°
Sets 08:49:56 0° 15° (NNE) 3,435 7.4 -22.9°
